Vicksburg, LA

11:26 AM CDT on March 25, 2017 (GMT -0500)
Vicksburg Tallulah Regional

Weather History for KTVR - February, 2012

Change the Weather History Date:

Sunday, February 26, 2012

  Actual Average Record
Temperature  
Mean Temperature 54 °F 53 °F  
Max Temperature 68 °F 63 °F 82 °F (1951)
Min Temperature 39 °F 42 °F 21 °F (1974)
Degree Days  
Heating Degree Days 11 13  
Month to date heating degree days 331 407  
Since 1 July heating degree days 1693 1951  
Cooling Degree Days 0 0  
Month to date cooling degree days 11 0  
Year to date cooling degree days 16 3  
Growing Degree Days 4 (Base 50)    
Moisture  
Dew Point 39 °F    
Average Humidity 58    
Maximum Humidity 86    
Minimum Humidity 29    
Precipitation  
Precipitation 0.00 in 0.17 in 2.20 in (1971)
Month to date precipitation 6.71 4.89  
Year to date precipitation 10.75 9.96  
Sea Level Pressure  
Sea Level Pressure 30.27 in    
Wind  
Wind Speed 8 mph (SSE)    
Max Wind Speed 17 mph    
Max Gust Speed 24 mph    
Visibility 10 miles    
Events      
T = Trace of Precipitation, MM = Missing Value Source: NWS Daily Summary

Daily Weather History Graph

Daily Weather History Graph

Search for Another Location

Airport or City:

Trip Planner

Search our weather history database for the weather conditions in past years. The results will help you decide how hot, cold, wet, or windy it might be!

Date:

Astronomy

Feb. 26, 2012 Rise Set
Actual Time 6:35 AM CST 5:58 PM CST
Civil Twilight 6:10 AM CST 6:23 PM CST
Nautical Twilight 5:42 AM CST 6:52 PM CST
Astronomical Twilight 5:14 AM CST 7:20 PM CST
Moon 8:50 AM CST (2/26) 10:35 PM CST (2/26)
Length of Visible Light 12h 12m
Length of Day
11h 23m
Waxing Crescent, 21% of the Moon is Illuminated
Feb 26
Waxing Crescent
Feb 29
First Quarter
Mar 8
Full
Mar 14
Last Quarter
Mar 22
New

Hourly Weather History & Observations

Time (CST) Temp. Windchill Dew Point Humidity Pressure Visibility Wind Dir Wind Speed Gust Speed Precip Events Conditions
1:53 AM 46.9 °F - 37.0 °F 68% 30.29 in 10.0 mi ESE 4.6 mph - N/A   Clear
2:53 AM 45.0 °F 43.5 °F 37.0 °F 74% 30.27 in 10.0 mi ESE 3.5 mph - N/A   Clear
3:53 AM 43.0 °F - 37.0 °F 80% 30.28 in 10.0 mi Calm Calm - N/A   Mostly Cloudy
4:53 AM 44.1 °F - 37.0 °F 76% 30.29 in 10.0 mi Calm Calm - N/A   Mostly Cloudy
5:53 AM 42.1 °F - 36.0 °F 79% 30.31 in 10.0 mi Calm Calm - N/A   Scattered Clouds
6:53 AM 41.0 °F - 37.0 °F 86% 30.32 in 10.0 mi Calm Calm - N/A   Clear
7:53 AM 48.9 °F - 37.9 °F 66% 30.33 in 10.0 mi East 4.6 mph - N/A   Clear
8:53 AM 53.1 °F - 36.0 °F 52% 30.35 in 10.0 mi ESE 6.9 mph - N/A   Clear
9:53 AM 57.0 °F - 33.1 °F 40% 30.34 in 10.0 mi South 8.1 mph - N/A   Clear
10:53 AM 61.0 °F - 33.1 °F 35% 30.33 in 10.0 mi South 13.8 mph 21.9 mph N/A   Clear
11:53 AM 63.0 °F - 30.9 °F 30% 30.30 in 10.0 mi SSE 11.5 mph - N/A   Clear
12:53 PM 64.9 °F - 32.0 °F 29% 30.27 in 10.0 mi South 11.5 mph - N/A   Clear
1:53 PM 66.9 °F - 33.1 °F 28% 30.23 in 10.0 mi South 12.7 mph 18.4 mph N/A   Clear
2:53 PM 68.0 °F - 37.0 °F 32% 30.20 in 10.0 mi SSE 8.1 mph 16.1 mph N/A   Clear
3:53 PM 68.0 °F - 41.0 °F 37% 30.18 in 10.0 mi South 12.7 mph - N/A   Clear
4:53 PM 66.0 °F - 44.1 °F 45% 30.18 in 10.0 mi South 15.0 mph - N/A   Clear
5:53 PM 61.0 °F - 46.0 °F 58% 30.20 in 10.0 mi SSE 11.5 mph - N/A   Clear
6:53 PM 61.0 °F - 45.0 °F 56% 30.22 in 10.0 mi SSE 13.8 mph 20.7 mph N/A   Overcast
7:53 PM 60.1 °F - 44.1 °F 55% 30.22 in 10.0 mi SSE 11.5 mph - N/A   Overcast
8:53 PM 59.0 °F - 44.1 °F 58% 30.24 in 10.0 mi SSE 9.2 mph - N/A   Overcast
9:53 PM 57.9 °F - 44.1 °F 60% 30.25 in 10.0 mi SE 9.2 mph - N/A   Overcast
10:26 PM 57.2 °F - 44.6 °F 63% 30.24 in 10.0 mi SSE 6.9 mph - N/A   Overcast
10:53 PM 57.0 °F - 45.0 °F 64% 30.26 in 10.0 mi SSE 5.8 mph - N/A   Overcast
11:53 PM 57.0 °F - 45.0 °F 64% 30.27 in 10.0 mi SE 6.9 mph - N/A   Overcast